TimeCDT,TemperatureF,Dew PointF,Humidity,Sea Level PressureIn,VisibilityMPH,Wind Direction,Wind SpeedMPH,Gust SpeedMPH,PrecipitationIn,Events,Conditions,WindDirDegrees,DateUTC
12:15 AM,80.6,73.4,79,30.00,10.0,SSE,4.6,-,N/A,,Mostly Cloudy,160,2013-06-15 05:15:00
12:35 AM,80.6,73.4,79,30.00,10.0,SSE,6.9,-,N/A,,Scattered Clouds,160,2013-06-15 05:35:00
12:55 AM,80.6,73.4,79,29.99,10.0,SSE,8.1,-,N/A,,Clear,160,2013-06-15 05:55:00
1:15 AM,80.6,71.6,74,29.99,10.0,SSE,6.9,-,N/A,,Scattered Clouds,160,2013-06-15 06:15:00
1:35 AM,80.6,71.6,74,29.99,10.0,SSE,8.1,-,N/A,,Mostly Cloudy,160,2013-06-15 06:35:00
1:55 AM,78.8,71.6,78,29.99,10.0,SSE,8.1,-,N/A,,Scattered Clouds,150,2013-06-15 06:55:00
2:15 AM,78.8,69.8,74,29.99,10.0,SSE,9.2,-,N/A,,Clear,150,2013-06-15 07:15:00
2:35 AM,78.8,69.8,74,29.99,10.0,SSE,9.2,-,N/A,,Clear,160,2013-06-15 07:35:00
2:55 AM,78.8,68.0,69,29.99,10.0,SSE,11.5,-,N/A,,Clear,160,2013-06-15 07:55:00
3:15 AM,78.8,68.0,69,29.99,10.0,SSE,9.2,-,N/A,,Clear,150,2013-06-15 08:15:00
3:35 AM,78.8,68.0,69,29.99,10.0,SSE,8.1,-,N/A,,Clear,160,2013-06-15 08:35:00
3:55 AM,77.0,68.0,74,30.00,10.0,SSE,6.9,-,N/A,,Clear,150,2013-06-15 08:55:00
4:15 AM,77.0,68.0,74,29.99,10.0,SE,4.6,-,N/A,,Clear,140,2013-06-15 09:15:00
4:35 AM,77.0,68.0,74,30.00,10.0,SE,5.8,-,N/A,,Clear,140,2013-06-15 09:35:00
4:55 AM,77.0,68.0,74,30.00,10.0,SE,3.5,-,N/A,,Clear,130,2013-06-15 09:55:00
5:15 AM,77.0,68.0,74,30.00,10.0,SSE,4.6,-,N/A,,Clear,150,2013-06-15 10:15:00
5:35 AM,77.0,68.0,74,30.00,10.0,SSE,4.6,-,N/A,,Clear,150,2013-06-15 10:35:00
5:55 AM,77.0,66.2,69,30.01,10.0,SSE,4.6,-,N/A,,Scattered Clouds,160,2013-06-15 10:55:00
6:15 AM,77.0,66.2,69,30.02,10.0,Calm,Calm,-,N/A,,Mostly Cloudy,0,2013-06-15 11:15:00
6:35 AM,77.0,68.0,74,30.02,10.0,Calm,Calm,-,N/A,,Mostly Cloudy,0,2013-06-15 11:35:00
6:55 AM,77.0,68.0,74,30.02,10.0,SSE,3.5,-,N/A,,Scattered Clouds,160,2013-06-15 11:55:00
7:15 AM,77.0,66.2,69,30.01,10.0,South,4.6,-,N/A,,Clear,180,2013-06-15 12:15:00
7:35 AM,77.0,66.2,69,30.01,10.0,Calm,Calm,-,N/A,,Clear,0,2013-06-15 12:35:00
7:55 AM,77.0,68.0,74,30.01,10.0,South,3.5,-,N/A,,Clear,190,2013-06-15 12:55:00
8:15 AM,77.0,68.0,74,30.01,10.0,Calm,Calm,-,N/A,,Clear,0,2013-06-15 13:15:00
8:35 AM,78.8,68.0,69,30.02,10.0,SSW,3.5,-,N/A,,Clear,210,2013-06-15 13:35:00
8:55 AM,78.8,68.0,69,30.02,10.0,Calm,Calm,-,N/A,,Clear,0,2013-06-15 13:55:00
9:15 AM,80.6,68.0,65,30.03,10.0,SE,5.8,-,N/A,,Clear,140,2013-06-15 14:15:00
9:35 AM,80.6,68.0,65,30.03,10.0,SSE,3.5,-,N/A,,Clear,150,2013-06-15 14:35:00
9:55 AM,80.6,69.8,70,30.03,10.0,South,4.6,-,N/A,,Clear,170,2013-06-15 14:55:00
10:15 AM,82.4,69.8,66,30.03,10.0,South,6.9,-,N/A,,Clear,190,2013-06-15 15:15:00
10:35 AM,84.2,71.6,66,30.03,10.0,South,5.8,-,N/A,,Clear,170,2013-06-15 15:35:00
10:55 AM,84.2,71.6,66,30.03,10.0,South,9.2,-,N/A,,Clear,170,2013-06-15 15:55:00
11:15 AM,86.0,71.6,62,30.03,10.0,SSE,6.9,-,N/A,,Scattered Clouds,160,2013-06-15 16:15:00
11:35 AM,86.0,71.6,62,30.03,10.0,South,6.9,-,N/A,,Clear,170,2013-06-15 16:35:00
11:55 AM,87.8,71.6,58,30.02,10.0,SSE,10.4,-,N/A,,Clear,160,2013-06-15 16:55:00
12:15 PM,87.8,71.6,58,30.01,10.0,SSE,8.1,-,N/A,,Clear,160,2013-06-15 17:15:00
12:35 PM,89.6,71.6,55,30.00,10.0,South,5.8,-,N/A,,Clear,170,2013-06-15 17:35:00
12:55 PM,89.6,71.6,55,29.99,10.0,SSE,6.9,-,N/A,,Clear,160,2013-06-15 17:55:00
1:15 PM,89.6,71.6,55,29.99,10.0,South,10.4,-,N/A,,Scattered Clouds,170,2013-06-15 18:15:00
1:35 PM,89.6,71.6,55,29.98,10.0,South,11.5,16.1,N/A,,Mostly Cloudy,180,2013-06-15 18:35:00
1:55 PM,89.6,73.4,59,29.97,10.0,South,11.5,-,N/A,,Mostly Cloudy,180,2013-06-15 18:55:00
2:15 PM,89.6,73.4,59,29.98,10.0,South,15.0,19.6,N/A,,Mostly Cloudy,190,2013-06-15 19:15:00
2:35 PM,87.8,71.6,58,29.96,10.0,South,13.8,19.6,N/A,Thunderstorm,Mostly Cloudy,180,2013-06-15 19:35:00
2:55 PM,87.8,71.6,58,29.96,10.0,SSW,13.8,-,N/A,Thunderstorm,Thunderstorm,200,2013-06-15 19:55:00
3:15 PM,87.8,71.6,58,29.96,10.0,SSW,15.0,20.7,N/A,,Scattered Clouds,210,2013-06-15 20:15:00
3:35 PM,86.0,71.6,62,29.98,10.0,SW,10.4,18.4,N/A,,Scattered Clouds,230,2013-06-15 20:35:00
3:55 PM,84.2,71.6,66,29.98,10.0,WSW,13.8,19.6,N/A,,Mostly Cloudy,240,2013-06-15 20:55:00
4:15 PM,82.4,69.8,66,29.99,10.0,WSW,10.4,20.7,N/A,Thunderstorm,Thunderstorm,240,2013-06-15 21:15:00
4:35 PM,78.8,69.8,74,29.98,10.0,West,6.9,-,N/A,,Mostly Cloudy,260,2013-06-15 21:35:00
4:55 PM,77.0,69.8,78,30.00,7.0,West,9.2,18.4,N/A,Rain-Thunderstorm,Thunderstorms and Rain,270,2013-06-15 21:55:00
5:15 PM,73.4,73.4,100,30.01,2.5,WNW,5.8,-,N/A,Rain,Heavy Rain,290,2013-06-15 22:15:00
5:35 PM,73.4,73.4,100,30.02,4.0,WNW,5.8,-,N/A,Rain-Thunderstorm,Light Thunderstorms and Rain,300,2013-06-15 22:35:00
5:55 PM,73.4,73.4,100,30.02,4.0,Calm,Calm,-,N/A,Rain-Thunderstorm,Rain,0,2013-06-15 22:55:00
6:15 PM,73.4,73.4,100,30.04,7.0,Calm,Calm,-,N/A,Rain-Thunderstorm,Rain,0,2013-06-15 23:15:00
6:35 PM,73.4,73.4,100,30.02,2.0,NE,5.8,-,N/A,Rain-Thunderstorm,Rain,50,2013-06-15 23:35:00
6:55 PM,71.6,71.6,100,29.99,3.0,NNE,5.8,-,N/A,Rain,Rain,30,2013-06-15 23:55:00
7:15 PM,71.6,71.6,100,29.99,7.0,East,4.6,-,N/A,Rain,Light Rain,100,2013-06-16 00:15:00
7:35 PM,71.6,71.6,100,30.02,7.0,ESE,3.5,-,N/A,Rain-Thunderstorm,Light Thunderstorms and Rain,110,2013-06-16 00:35:00
7:55 PM,71.6,71.6,100,30.02,5.0,ESE,10.4,-,N/A,Rain,Rain,120,2013-06-16 00:55:00
8:15 PM,71.6,71.6,100,30.02,10.0,ESE,8.1,16.1,N/A,,Scattered Clouds,110,2013-06-16 01:15:00
8:35 PM,71.6,71.6,100,30.00,10.0,East,5.8,-,N/A,,Scattered Clouds,100,2013-06-16 01:35:00
8:55 PM,71.6,71.6,100,30.00,10.0,SE,5.8,-,N/A,,Scattered Clouds,130,2013-06-16 01:55:00
9:15 PM,71.6,71.6,100,30.00,10.0,Calm,Calm,-,N/A,,Mostly Cloudy,0,2013-06-16 02:15:00
9:35 PM,71.6,71.6,100,29.98,10.0,Calm,Calm,-,N/A,,Scattered Clouds,0,2013-06-16 02:35:00
9:55 PM,71.6,71.6,100,29.98,10.0,Calm,Calm,-,N/A,,Clear,0,2013-06-16 02:55:00
10:15 PM,71.6,71.6,100,29.98,10.0,Calm,Calm,-,N/A,Thunderstorm,Clear,0,2013-06-16 03:15:00
10:35 PM,71.6,71.6,100,30.00,10.0,Calm,Calm,-,N/A,,Scattered Clouds,0,2013-06-16 03:35:00
10:55 PM,71.6,71.6,100,30.02,4.0,SE,13.8,-,N/A,Rain-Thunderstorm,Heavy Thunderstorms and Rain,140,2013-06-16 03:55:00
11:15 PM,71.6,71.6,100,30.03,7.0,South,9.2,-,N/A,Rain,Heavy Rain,170,2013-06-16 04:15:00
11:35 PM,71.6,71.6,100,30.01,10.0,SSE,6.9,-,N/A,Thunderstorm,Scattered Clouds,150,2013-06-16 04:35:00
11:55 PM,71.6,71.6,100,30.00,10.0,SE,6.9,-,N/A,,Scattered Clouds,140,2013-06-16 04:55:00